CCSDS_OMM_VERS = 2.0 CREATION_DATE = ORIGINATOR = OBJECT_NAME = EWS-G3 (GOES 14) OBJECT_ID = 2009-033A CENTER_NAME = EARTH REF_FRAME = TEME TIME_SYSTEM = UTC MEAN_ELEMENT_THEORY = SGP/SGP4 EPOCH = 2026-09-12T03:21:45.731232 MEAN_MOTION = 1.00071615 ECCENTRICITY = .0002117 INCLINATION = 1.9086 RA_OF_ASC_NODE = 81.8193 ARG_OF_PERICENTER = 90.4866 MEAN_ANOMALY = 314.3714 EPHEMERIS_TYPE = 0 CLASSIFICATION_TYPE = U NORAD_CAT_ID = 35491 ELEMENT_SET_NO = 999 REV_AT_EPOCH = 746 BSTAR = 0 MEAN_MOTION_DOT = -.15400E-5 MEAN_MOTION_DDOT = 0 CCSDS_OMM_VERS = 2.0 CREATION_DATE = ORIGINATOR = OBJECT_NAME = EWS-G2 (GOES 15) OBJECT_ID = 2010-008A CENTER_NAME = EARTH REF_FRAME = TEME TIME_SYSTEM = UTC MEAN_ELEMENT_THEORY = SGP/SGP4 EPOCH = 2026-09-12T03:56:31.586208 MEAN_MOTION = 1.00271451 ECCENTRICITY = .0005151 INCLINATION = 1.5126 RA_OF_ASC_NODE = 81.8555 ARG_OF_PERICENTER = 80.3249 MEAN_ANOMALY = 311.4374 EPHEMERIS_TYPE = 0 CLASSIFICATION_TYPE = U NORAD_CAT_ID = 36411 ELEMENT_SET_NO = 999 REV_AT_EPOCH = 6051 BSTAR = 0 MEAN_MOTION_DOT = .80000E-7 MEAN_MOTION_DDOT = 0 CCSDS_OMM_VERS = 2.0 CREATION_DATE = ORIGINATOR = OBJECT_NAME = GOES 16 OBJECT_ID = 2016-071A CENTER_NAME = EARTH REF_FRAME = TEME TIME_SYSTEM = UTC MEAN_ELEMENT_THEORY = SGP/SGP4 EPOCH = 2026-09-12T03:08:36.181248 MEAN_MOTION = 1.00272447 ECCENTRICITY = .0001698 INCLINATION = 0.5504 RA_OF_ASC_NODE = 84.5825 ARG_OF_PERICENTER = 131.2749 MEAN_ANOMALY = 77.7617 EPHEMERIS_TYPE = 0 CLASSIFICATION_TYPE = U NORAD_CAT_ID = 41866 ELEMENT_SET_NO = 999 REV_AT_EPOCH = 3597 BSTAR = 0 MEAN_MOTION_DOT = -.10600E-5 MEAN_MOTION_DDOT = 0 CCSDS_OMM_VERS = 2.0 CREATION_DATE = ORIGINATOR = OBJECT_NAME = GOES 17 OBJECT_ID = 2018-022A CENTER_NAME = EARTH REF_FRAME = TEME TIME_SYSTEM = UTC MEAN_ELEMENT_THEORY = SGP/SGP4 EPOCH = 2026-09-12T03:12:58.260960 MEAN_MOTION = 1.00272399 ECCENTRICITY = .0000834 INCLINATION = 1.1553 RA_OF_ASC_NODE = 84.2471 ARG_OF_PERICENTER = 130.4475 MEAN_ANOMALY = 95.2021 EPHEMERIS_TYPE = 0 CLASSIFICATION_TYPE = U NORAD_CAT_ID = 43226 ELEMENT_SET_NO = 999 REV_AT_EPOCH = 3129 BSTAR = 0 MEAN_MOTION_DOT = -.19700E-5 MEAN_MOTION_DDOT = 0 CCSDS_OMM_VERS = 2.0 CREATION_DATE = ORIGINATOR = OBJECT_NAME = GOES 18 OBJECT_ID = 2022-021A CENTER_NAME = EARTH REF_FRAME = TEME TIME_SYSTEM = UTC MEAN_ELEMENT_THEORY = SGP/SGP4 EPOCH = 2026-09-12T02:59:22.066080 MEAN_MOTION = 1.00273283 ECCENTRICITY = .0000531 INCLINATION = 0.0403 RA_OF_ASC_NODE = 314.5583 ARG_OF_PERICENTER = 276.0642 MEAN_ANOMALY = 28.364 EPHEMERIS_TYPE = 0 CLASSIFICATION_TYPE = U NORAD_CAT_ID = 51850 ELEMENT_SET_NO = 999 REV_AT_EPOCH = 746 BSTAR = 0 MEAN_MOTION_DOT = .81000E-6 MEAN_MOTION_DDOT = 0 CCSDS_OMM_VERS = 2.0 CREATION_DATE = ORIGINATOR = OBJECT_NAME = GOES 19 OBJECT_ID = 2024-119A CENTER_NAME = EARTH REF_FRAME = TEME TIME_SYSTEM = UTC MEAN_ELEMENT_THEORY = SGP/SGP4 EPOCH = 2026-09-12T03:16:57.879264 MEAN_MOTION = 1.00271337 ECCENTRICITY = .0000523 INCLINATION = 0.0035 RA_OF_ASC_NODE = 20.7833 ARG_OF_PERICENTER = 236.6149 MEAN_ANOMALY = 67.7976 EPHEMERIS_TYPE = 0 CLASSIFICATION_TYPE = U NORAD_CAT_ID = 60133 ELEMENT_SET_NO = 999 REV_AT_EPOCH = 783 BSTAR = 0 MEAN_MOTION_DOT = -.26300E-5 MEAN_MOTION_DDOT = 0